ARIANE 5 DEB (SYLDA), 45247

Orbit data source: Space-Track

ARIANE 5 DEB (SYLDA), 45247 is space debris in HEO originally from a launch on Tue, 18 Feb 2020 UTC launched from the French Guiana (FRGUI). Debris objects in space refer to the collection of defunct objects orbiting the Earth. Examples of debris include non-operational satellites, rocket bodies, and fragments generated from explosions, collisions, or faulty payload assembly.

Loading next visibility...
Identifier
45247, 2020-013C
Orbit
HEO
Country
Flag of FRFR
Related business
Manufacturer
ADS/Bremen
Mission
Spacecraft
Bus & Motor
SYLDA 5, Unknown motor
Mass
440 kg wet, 440 kg dry
Launch date (UTC)
2020-02-18 (6 years ago)
Launch vehicle
Unknown
Launch site
French Guiana (FRGUI)
Object type
Payload
Rocket body
Debris
Shape & HBR
Cyl, Unknown HBR
Radar Cross Section
27.391 m², Large (>1 m²)

Expand to show TLE details & history
Last TLE update: 5 days ago

TLE from 5 days ago
0 ARIANE 5 DEB (SYLDA)
1 45247U 20013C   25287.76850417  .00029257  00000-0  66873-2 0  9997
2 45247   5.7753 344.3872 6420509  85.9117 339.7881  3.42691723 55432
Epoch: 2025-10-14T18:26Z
TLE epoch observation values (Epoch: 2025-10-14T18:26:38.760Z)
Latitude
-0.00003°
Longitude
44.06725°
Altitude
4,074.257 km
Speed
7.404 km/s
True Right ascension
22h 57m 07s
True Declination
0° 00' 00"
Sunlit
Object was in full shadow at epoch
Visualization orbit readout
Latitude
Unknown
Longitude
Unknown
Altitude
Unknown
Speed
Unknown
Apparent Right ascension
Unknown
Apparent Declination
Unknown
Sunlit
N/A
Visualization observer readout
Local Sidereal Time
02:11:30
Azimuth
Unknown
Elevation
Unknown
Doppler factor
Unknown
Orbital elements
Apogee altitude
24,145.81 km
Perigee altitude
275.749 km
Semi-major axis
18,588.917 km
Eccentricity
0.64205
Inclination
5.7753°
RAAN
344.3872°
Arg. of periapsis
85.9117°
True anomaly
273.79442°
Mean anomaly
339.7881°
Eccentric anomaly
312.79383°
Mean motion
0.85637 °/min
Orbital period
420.38 mins
BSTAR
0.0066873
Loading maneuver chart data...
Computing Atmospheric mass density...
Loading historical data...
Loading historical data...
Loading historical data...
Loading historical data...
Loading historical data...
Loading historical data...
Loading historical data...
Other satellites on launch #13 in the year 2020 (2020-02-18 UTC)

Documentation

Showing up to 5 results
|